Regional Weather Roundup
Issued by NWS Green Bay, WI

Home | Current Version | Previous Version | Text Only | Print | Product List | Glossary On
Versions: 1 2 3 4 5 6 7 8 9 10 11 12 13 14 15 16 17 18 19 20 21 22 23 24 25 26 27 28 29 30 31 32 33 34 35 36 37 38 39 40 41 42 43 44 45 46 47 48 49 50
000
ASUS43 KGRB 302211
RWRGRB

NORTH-CENTRAL AND NORTHEAST WISCONSIN REGIONAL WEATHER ROUNDUP
NATIONAL WEATHER SERVICE GREEN BAY WI
500 PM CDT SAT APR 30 2016

WIZ005-009-010>012-018-019-302300-
NORTH CENTRAL WISCONSIN

CITY           SKY/WX    TMP DP  RH WIND       PRES   REMARKS
IRONWOOD         N/A     50  34  53 NE10G20   30.15S
MANITOWISH WTR MOSUNNY   53  33  47 NE10G23   30.11S
ARBOR VITAE    CLOUDY    56  35  44 NE8G20    30.10S
EAGLE RIVER    CLOUDY    54  29  37 E12G20    30.10S
LAND O LAKES   PTSUNNY   53  32  44 NE12G21   30.13S
RHINELANDER    CLOUDY    56  32  40 NE13G21   30.08F
PHILLIPS       CLOUDY    56  33  43 NE14G24   30.07F
ANTIGO         CLOUDY    52  34  49 E16       30.05F
TOMAHAWK       CLOUDY    56  31  39 NE10G21   30.06F
MERRILL        CLOUDY    57  34  41 E15       30.05S
$$

WIZ013-073-302300-
NORTHEAST WISCONSIN

CITY           SKY/WX    TMP DP  RH WIND       PRES   REMARKS
IRON MOUNTAIN  MOSUNNY   54  30  40 NE10G20   30.11F
MARINETTE      CLOUDY    52  28  40 NE13      30.08F
OCONTO         CLOUDY    50  32  50 NE8G16    30.07F
$$

WIZ017-030-035>037-045-302300-
CENTRAL WISCONSIN

CITY           SKY/WX    TMP DP  RH WIND       PRES   REMARKS
MEDFORD        CLOUDY    56  34  43 E12       30.03S
WAUSAU         CLOUDY    56  32  40 E14G22    30.03S
MOSINEE        SUNNY     54  30  40 E10       30.04F
MARSHFIELD     CLOUDY    54  31  41 E12       30.02F
WISC RAPIDS    CLOUDY    53  28  38 E13       30.05S
STEVENS POINT  CLOUDY    50  28  43 NE20G26   30.04S
WAUPACA        CLOUDY    53  32  46 NE9G18    30.04F
SHAWANO        CLOUDY    55  32  41 E14G24    30.06F
CLINTONVILLE   CLOUDY    54  27  35 NE13G21   30.05F
WAUTOMA        CLOUDY    51  35  54 E16G25    30.03S
$$

WIZ038-039-048-051-302300-
FOX VALLEY

CITY           SKY/WX    TMP DP  RH WIND       PRES   REMARKS
NWS GREEN BAY  CLOUDY    51  37  58 NE15      30.06F
APPLETON       CLOUDY    50  32  50 NE17      30.02F
OSHKOSH        CLOUDY    51  37  58 NE12      30.01F
FOND DU LAC    LGT RAIN  51  37  58 E13G21    30.01F
$$

WIZ022-050-052-302300-
EAST CENTRAL WISCONSIN

CITY           SKY/WX    TMP DP  RH WIND       PRES   REMARKS
EPHRAIM        FAIR      52  27  37 NE9       30.08S
STURGEON BAY   CLOUDY    50  30  46 NE9       30.10F
MANITOWOC      CLOUDY    47  35  63 MISG      30.05F
SHEBOYGAN      LGT RAIN  46  38  73 NE16G25   30.02F
$$

LMZ563-521-522-541>543-302300-
LAKESHORE

STATION/POSITION TIME  TEMP    WIND        PRES    VSBY  WAVE
                       AIR SEA DIR/SP/G                  HT/PER
                 (UTC) (F)     (DEG/KT/KT) (MB)    (MI)  (FT/S)
SHEBOYGAN LKSHOR 2200   42      20/ 18/ 20 1017.4F
KEWAUNEE LKSHORE 2100   45      20/ 12/ 15 1017.9F
ALGOMA MARINA    2115           50/ 14/ 19   N/A
NORTHPORT PIER   2100   48      20/  7/  9 1019.6F
N MID LAKE BUOY  2150   42 39  360/ 10/ 12 1019.2F         0
CHAMBERS ISLAND  2100   44      10/  8/ 10 1019.6F
MENOMINEE LKSHOR 2100   44      10/ 12/ 13 1018.1F
$$




USA.gov is the U.S. government's official web portal to all federal, state and local government web resources and services.